N0JVW-13 Weather Reports


Display with metric or nautical units.
time (UTC)temp
F
wind
direction
speed
MPH
gust
MPH
rain 1hr
in
rain 24hr
in
rain mn
in
humidity
%
barometer
mb
20260905045058 79 127 0.0 0.0 0.00 0.00 0.00 71 1011.2
20260905044540 79 127 0.0 0.0 0.00 0.00 0.00 71 1011.2
20260905044017 79 127 0.0 0.0 0.00 0.00 0.00 71 1011.0
20260905043601 79 127 0.0 0.0 0.00 0.00 0.00 71 1010.9
20260905043042 79 127 0.0 0.0 0.00 0.00 0.00 71 1010.9
20260905042520 80 127 0.0 0.0 0.00 0.00 0.00 71 1010.9
20260905042001 80 127 0.0 0.0 0.00 0.00 0.00 71 1010.9
20260905041545 80 127 0.0 0.0 0.00 0.00 0.00 71 1010.8
20260905041024 80 127 0.0 0.0 0.00 0.00 0.00 71 1010.9
20260905040504 80 126 0.0 0.0 0.00 0.00 0.00 71 1010.9
20260905040058 80 127 0.0 0.0 0.00 0.00 0.00 71 1010.8
20260905035530 81 127 0.0 0.0 0.00 0.00 0.00 71 1010.9
20260905035006 81 127 0.0 0.0 0.00 0.00 0.00 71 1011.0
20260905034550 81 127 0.0 0.0 0.00 0.00 0.00 71 1011.0
20260905034029 81 127 0.0 0.0 0.00 0.00 0.00 71 1011.0
20260905033509 81 127 0.0 0.0 0.00 0.00 0.00 71 1011.0
20260905033104 81 127 0.0 0.0 0.00 0.00 0.00 71 1010.9
20260905032533 81 127 0.0 0.0 0.00 0.00 0.00 71 1010.9
20260905032012 81 127 0.0 0.0 0.00 0.00 0.00 71 1010.9
20260905031559 81 127 0.0 0.0 0.00 0.00 0.00 71 1010.9
20260905031035 81 127 0.0 0.0 0.00 0.00 0.00 71 1010.9
20260905030515 81 127 0.0 0.0 0.00 0.00 0.00 71 1010.8
20260905030109 82 127 0.0 0.0 0.00 0.00 0.00 71 1010.9
20260905025541 82 127 0.0 0.0 0.00 0.00 0.00 71 1010.8
20260905025017 82 127 0.0 0.0 0.00 0.00 0.00 71 1010.7
20260905024612 82 127 0.0 0.0 0.00 0.00 0.00 71 1010.7
20260905024042 82 127 0.0 0.0 0.00 0.00 0.00 71 1010.6
20260905023519 82 127 0.0 0.0 0.00 0.00 0.00 70 1010.5
20260905023101 82 127 0.0 0.0 0.00 0.00 0.00 69 1010.5
20260905022544 82 127 0.0 0.0 0.00 0.00 0.00 69 1010.5
20260905022019 83 127 0.0 0.0 0.00 0.00 0.00 68 1010.4
20260905021615 83 127 0.0 0.0 0.00 0.00 0.00 68 1010.2
20260905021042 83 127 0.0 0.0 0.00 0.00 0.00 68 1010.2
20260905020522 83 127 0.0 0.0 0.00 0.00 0.00 68 1010.1
20260905020002 83 127 0.0 0.0 0.00 0.00 0.00 68 1010.0
20260905015547 84 127 0.0 0.0 0.00 0.00 0.00 67 1010.0
20260905015027 84 127 0.0 0.0 0.00 0.00 0.00 67 1010.0
20260905014506 84 127 0.0 0.0 0.00 0.00 0.00 66 1009.9
20260905014048 84 127 0.0 0.0 0.00 0.00 0.00 65 1009.8
20260905013527 85 127 0.0 0.0 0.00 0.00 0.00 65 1009.8
20260905013008 85 127 0.0 0.0 0.00 0.00 0.00 64 1009.7
20260905012550 85 127 0.0 0.0 0.00 0.00 0.00 64 1009.7
20260905012030 86 127 0.0 0.0 0.00 0.00 0.00 63 1009.6
20260905011509 86 127 0.0 0.0 0.00 0.00 0.00 63 1009.6
20260905011052 86 127 0.0 0.0 0.00 0.00 0.00 63 1009.5
20260905010532 87 127 0.0 0.0 0.00 0.00 0.00 61 1009.4
20260905010011 87 127 0.0 0.0 0.00 0.00 0.00 60 1009.4
20260905005555 88 127 0.0 0.0 0.00 0.00 0.00 60 1009.5
20260905005035 88 127 0.0 0.0 0.00 0.00 0.00 59 1009.4
20260905004514 89 127 0.0 0.0 0.00 0.00 0.00 58 1009.5
20260905004058 89 127 0.0 0.0 0.00 0.00 0.00 58 1009.5
20260905003538 89 127 0.0 0.0 0.00 0.00 0.00 57 1009.4
20260905003018 90 127 0.0 0.0 0.00 0.00 0.00 56 1009.4
20260905002601 90 127 0.0 0.0 0.00 0.00 0.00 56 1009.4
20260905002042 90 127 0.0 0.0 0.00 0.00 0.00 55 1009.5
20260905001518 91 127 0.0 0.0 0.00 0.00 0.00 54 1009.6
20260905001101 91 127 0.0 0.0 0.00 0.00 0.00 54 1009.5
20260905000542 91 127 0.0 0.0 0.00 0.00 0.00 53 1009.5
20260905000021 92 127 0.0 0.0 0.00 0.00 0.00 53 1009.5
20260904235603 92 127 0.0 0.0 0.00 0.00 0.00 52 1009.5
20260904235043 92 127 0.0 0.0 0.00 0.00 0.00 52 1009.6
20260904234528 92 161 0.0 0.0 0.00 0.00 0.00 51 1009.6
20260904234000 93 161 0.0 1.0 0.00 0.00 0.00 50 1009.7
20260904233549 93 144 0.0 1.0 0.00 0.00 0.00 50 1009.7
20260904233024 93 140 0.0 1.0 0.00 0.00 0.00 50 1009.7
20260904232503 93 153 0.0 2.0 0.00 0.00 0.00 49 1009.8
20260904232045 93 127 0.0 2.0 0.00 0.00 0.00 49 1009.8
20260904231525 93 153 0.0 3.0 0.00 0.00 0.00 48 1009.8
20260904231003 93 123 0.0 2.0 0.00 0.00 0.00 48 1009.8
20260904230548 93 153 0.0 2.0 0.00 0.00 0.00 49 1009.8
20260904230036 93 133 0.0 2.0 0.00 0.00 0.00 48 1009.9
20260904225509 94 160 0.0 2.0 0.00 0.00 0.00 48 1009.9
20260904225049 94 153 0.0 3.0 0.00 0.00 0.00 49 1010.0
20260904224533 94 158 0.0 3.0 0.00 0.00 0.00 48 1009.9
20260904224012 94 158 0.0 2.0 0.00 0.00 0.00 49 1009.8
20260904223554 94 114 0.0 2.0 0.00 0.00 0.00 48 1009.8
20260904223033 94 155 0.0 3.0 0.00 0.00 0.00 48 1009.9
20260904222514 94 167 1.0 3.0 0.00 0.00 0.00 48 1009.8
20260904222055 94 141 0.0 3.0 0.00 0.00 0.00 49 1009.8
20260904221536 94 158 0.0 3.0 0.00 0.00 0.00 48 1009.9
20260904221015 94 142 0.0 2.0 0.00 0.00 0.00 49 1010.0
20260904220558 94 102 0.0 3.0 0.00 0.00 0.00 50 1010.0
20260904220043 94 111 0.0 3.0 0.00 0.00 0.00 50 1010.0
20260904215518 94 133 0.0 1.0 0.00 0.00 0.00 50 1010.1
20260904215103 94 140 0.0 2.0 0.00 0.00 0.00 50 1010.1
20260904214548 94 117 0.0 2.0 0.00 0.00 0.00 50 1010.1
20260904214024 94 162 0.0 3.0 0.00 0.00 0.00 50 1010.1
20260904213604 94 149 1.0 3.0 0.00 0.00 0.00 49 1010.2
20260904213044 94 127 0.0 3.0 0.00 0.00 0.00 50 1010.2
20260904212524 94 165 0.0 3.0 0.00 0.00 0.00 49 1010.1
20260904212003 94 165 0.0 4.0 0.00 0.00 0.00 49 1010.2
20260904211547 94 122 1.0 4.0 0.00 0.00 0.00 50 1010.2
20260904211027 94 140 0.0 4.0 0.00 0.00 0.00 49 1010.3
20260904210612 94 147 0.0 4.0 0.00 0.00 0.00 50 1010.3
20260904210106 94 159 0.0 3.0 0.00 0.00 0.00 50 1010.4
20260904205538 94 163 0.0 3.0 0.00 0.00 0.00 50 1010.5
20260904205020 94 148 0.0 1.0 0.00 0.00 0.00 50 1010.5
20260904204600 94 136 0.0 3.0 0.00 0.00 0.00 50 1010.4
20260904204039 94 158 0.0 3.0 0.00 0.00 0.00 50 1010.5
20260904203520 95 160 0.0 3.0 0.00 0.00 0.00 51 1010.6
20260904203103 94 160 1.0 3.0 0.00 0.00 0.00 51 1010.7
20260904202542 94 127 0.0 3.0 0.00 0.00 0.00 51 1010.6
20260904202021 94 127 0.0 3.0 0.00 0.00 0.00 51 1010.7
20260904201501 94 134 0.0 3.0 0.00 0.00 0.00 50 1010.7
20260904201045 94 160 0.0 3.0 0.00 0.00 0.00 51 1010.8
20260904200630 94 162 0.0 4.0 0.00 0.00 0.00 51 1010.8
20260904200030 94 139 0.0 4.0 0.00 0.00 0.00 50 1010.8
20260904195555 94 139 0.0 4.0 0.00 0.00 0.00 50 1010.9
20260904195035 94 153 0.0 4.0 0.00 0.00 0.00 51 1010.9
20260904194515 95 149 1.0 4.0 0.00 0.00 0.00 49 1011.0
20260904194058 95 132 0.0 3.0 0.00 0.00 0.00 51 1010.9
20260904193538 94 158 1.0 2.0 0.00 0.00 0.00 52 1011.0
20260904193019 94 129 0.0 2.0 0.00 0.00 0.00 52 1011.1
20260904192601 94 139 0.0 3.0 0.00 0.00 0.00 52 1011.1
20260904192043 94 151 1.0 4.0 0.00 0.00 0.00 51 1011.2
20260904191519 94 142 0.0 4.0 0.00 0.00 0.00 51 1011.2
20260904191104 94 166 0.0 3.0 0.00 0.00 0.00 51 1011.2
20260904190542 94 121 1.0 3.0 0.00 0.00 0.00 52 1011.3
20260904190021 93 124 0.0 6.0 0.00 0.00 0.00 53 1011.3
20260904185501 93 125 1.0 6.0 0.00 0.00 0.00 52 1011.3
20260904185048 93 165 1.0 4.0 0.00 0.00 0.00 51 1011.3
20260904184524 93 122 0.0 4.0 0.00 0.00 0.00 53 1011.4
20260904184003 93 163 1.0 4.0 0.00 0.00 0.00 54 1011.4
20260904183546 93 134 0.0 3.0 0.00 0.00 0.00 55 1011.4
20260904183025 93 160 0.0 3.0 0.00 0.00 0.00 54 1011.5
20260904182505 93 172 0.0 3.0 0.00 0.00 0.00 55 1011.5
20260904182048 93 165 0.0 2.0 0.00 0.00 0.00 55 1011.5
20260904181528 93 161 0.0 3.0 0.00 0.00 0.00 54 1011.6
20260904181007 92 165 0.0 1.0 0.00 0.00 0.00 56 1011.7
20260904180551 92 169 0.0 4.0 0.00 0.00 0.00 55 1011.7
20260904180030 92 173 0.0 5.0 0.00 0.00 0.00 56 1011.8
20260904175511 92 159 1.0 3.0 0.00 0.00 0.00 56 1011.8
20260904175053 92 152 0.0 4.0 0.00 0.00 0.00 57 1012.0
20260904174533 91 162 0.0 4.0 0.00 0.00 0.00 58 1011.9
20260904174013 91 158 0.0 4.0 0.00 0.00 0.00 57 1011.9
20260904173556 91 117 2.0 4.0 0.00 0.00 0.00 57 1012.0
20260904173036 91 157 0.0 3.0 0.00 0.00 0.00 59 1012.1
20260904172515 90 169 0.0 3.0 0.00 0.00 0.00 58 1012.1
20260904172059 90 115 0.0 3.0 0.00 0.00 0.00 58 1012.1
20260904171606 90 169 1.0 4.0 0.00 0.00 0.00 59 1012.2
20260904171017 90 162 0.0 5.0 0.00 0.00 0.00 60 1012.2
20260904170600 90 178 1.0 5.0 0.00 0.00 0.00 59 1012.3
20260904170041 90 134 1.0 5.0 0.00 0.00 0.00 60 1012.3
20260904165522 89 154 0.0 4.0 0.00 0.00 0.00 61 1012.3
20260904165103 89 205 0.0 4.0 0.00 0.00 0.00 61 1012.5
20260904164543 89 154 1.0 4.0 0.00 0.00 0.00 64 1012.6
20260904164021 88 210 0.0 1.0 0.00 0.00 0.00 64 1012.6
20260904163501 88 210 0.0 3.0 0.00 0.00 0.00 63 1012.6
20260904163053 88 210 0.0 3.0 0.00 0.00 0.00 63 1012.6
20260904162525 88 133 0.0 2.0 0.00 0.00 0.00 65 1012.6
20260904162004 87 134 0.0 2.0 0.00 0.00 0.00 65 1012.6
20260904161556 87 139 0.0 0.0 0.00 0.00 0.00 66 1012.5
20260904161028 87 139 0.0 2.0 0.00 0.00 0.00 66 1012.6
20260904160507 87 128 0.0 3.0 0.00 0.00 0.00 67 1012.6
20260904160057 87 120 0.0 3.0 0.00 0.00 0.00 67 1012.6
20260904155530 86 152 0.0 4.0 0.00 0.00 0.00 67 1012.6
20260904155009 86 158 0.0 2.0 0.00 0.00 0.00 68 1012.6
20260904154554 86 145 0.0 3.0 0.00 0.00 0.00 67 1012.7
20260904154033 85 124 0.0 3.0 0.00 0.00 0.00 68 1012.6
20260904153511 85 141 0.0 3.0 0.00 0.00 0.00 68 1012.7
20260904153111 85 342 0.0 2.0 0.00 0.00 0.00 68 1012.7
20260904152534 85 342 0.0 2.0 0.00 0.00 0.00 69 1012.7
20260904152013 85 346 0.0 2.0 0.00 0.00 0.00 69 1012.7
20260904151558 84 158 0.0 2.0 0.00 0.00 0.00 70 1012.6
20260904151037 84 158 0.0 2.0 0.00 0.00 0.00 70 1012.7
20260904150520 84 158 0.0 2.0 0.00 0.00 0.00 70 1012.7
20260904150100 83 132 0.0 2.0 0.00 0.00 0.00 70 1012.6
20260904145540 83 132 0.0 3.0 0.00 0.00 0.00 70 1012.7
20260904145019 83 173 0.0 3.0 0.00 0.00 0.00 71 1012.6
20260904144613 82 178 0.0 2.0 0.00 0.00 0.00 71 1012.6
20260904144041 82 119 0.0 2.0 0.00 0.00 0.00 71 1012.7
20260904143520 82 132 0.0 0.0 0.00 0.00 0.00 71 1012.8
20260904143122 81 133 0.0 2.0 0.00 0.00 0.00 71 1012.8
20260904142543 81 132 0.0 2.0 0.00 0.00 0.00 70 1012.8
20260904142022 81 124 0.0 2.0 0.00 0.00 0.00 70 1012.8
20260904141501 80 160 0.0 2.0 0.00 0.00 0.00 69 1012.6
20260904141044 80 176 0.0 2.0 0.00 0.00 0.00 69 1012.7
20260904140528 80 148 0.0 2.0 0.00 0.00 0.00 66 1012.6
20260904140004 79 122 0.0 1.0 0.00 0.00 0.00 67 1012.6
20260904135547 79 157 0.0 1.0 0.00 0.00 0.00 65 1012.6
20260904135027 79 157 0.0 2.0 0.00 0.00 0.00 65 1012.6
20260904134506 78 162 0.0 0.0 0.00 0.00 0.00 64 1012.6
20260904134050 78 160 0.0 0.0 0.00 0.00 0.00 64 1012.7
20260904133529 78 151 0.0 0.0 0.00 0.00 0.00 61 1012.7
20260904133010 77 153 0.0 0.0 0.00 0.00 0.00 60 1012.7
20260904132553 77 132 0.0 0.0 0.00 0.00 0.00 57 1012.8
20260904132032 76 132 0.0 0.0 0.00 0.00 0.00 58 1012.7
20260904131512 76 132 0.0 0.0 0.00 0.00 0.00 55 1012.6
20260904131059 76 132 0.0 0.0 0.00 0.00 0.00 53 1012.5
20260904130535 75 159 0.0 1.0 0.00 0.00 0.00 54 1012.5
20260904130014 75 159 0.0 2.0 0.00 0.00 0.00 53 1012.4
20260904125558 75 146 0.0 2.0 0.00 0.00 0.00 52 1012.4
20260904125038 75 146 0.0 1.0 0.00 0.00 0.00 50 1012.3
20260904124517 75 117 0.0 1.0 0.00 0.00 0.00 49 1012.2
20260904124100 74 114 0.0 0.0 0.00 0.00 0.00 48 1012.1
20260904123540 74 154 0.0 0.0 0.00 0.00 0.00 47 1012.1
20260904123020 74 154 0.0 0.0 0.00 0.00 0.00 47 1012.0
20260904122606 74 155 0.0 0.0 0.00 0.00 0.00 45 1012.0
20260904122042 74 154 0.0 0.0 0.00 0.00 0.00 45 1012.0
20260904121519 74 154 0.0 0.0 0.00 0.00 0.00 44 1012.0
20260904121103 74 155 0.0 0.0 0.00 0.00 0.00 46 1011.9
20260904120541 74 154 0.0 0.0 0.00 0.00 0.00 46 1011.8
20260904120032 74 154 0.0 0.0 0.00 0.00 0.00 47 1011.7
20260904115501 74 154 0.0 0.0 0.00 0.00 0.00 50 1011.7
20260904115045 74 154 0.0 0.0 0.00 0.00 0.00 50 1011.8
20260904114524 74 154 0.0 1.0 0.00 0.00 0.00 51 1011.7
20260904114003 74 153 0.0 1.0 0.00 0.00 0.00 53 1011.7
20260904113544 74 144 0.0 0.0 0.00 0.00 0.00 56 1011.7
20260904113024 74 141 0.0 0.0 0.00 0.00 0.00 58 1011.6
20260904112502 74 141 0.0 0.0 0.00 0.00 0.00 59 1011.6
20260904112045 74 141 0.0 0.0 0.00 0.00 0.00 59 1011.6
20260904111525 75 141 0.0 0.0 0.00 0.00 0.00 59 1011.5
20260904111004 75 141 0.0 0.0 0.00 0.00 0.00 60 1011.5
20260904110549 75 141 0.0 0.0 0.00 0.00 0.00 60 1011.4
20260904110027 75 141 0.0 0.0 0.00 0.00 0.00 62 1011.3
20260904105507 75 141 0.0 0.0 0.00 0.00 0.00 62 1011.2
20260904105051 75 141 0.0 0.0 0.00 0.00 0.00 63 1011.3
20260904104527 75 141 0.0 0.0 0.00 0.00 0.00 64 1011.2
20260904104009 75 141 0.0 0.0 0.00 0.00 0.00 64 1011.2
20260904103551 75 141 0.0 0.0 0.00 0.00 0.00 64 1011.1
20260904103031 75 141 0.0 0.0 0.00 0.00 0.00 65 1011.1
20260904102510 75 141 0.0 0.0 0.00 0.00 0.00 65 1011.0
20260904102054 75 141 0.0 0.0 0.00 0.00 0.00 65 1011.1
20260904101535 75 141 0.0 0.0 0.00 0.00 0.00 66 1011.0
20260904101018 76 141 0.0 0.0 0.00 0.00 0.00 66 1011.0
20260904100556 76 141 0.0 0.0 0.00 0.00 0.00 66 1011.0
20260904100036 76 141 0.0 0.0 0.00 0.00 0.00 67 1010.9
20260904095519 76 141 0.0 0.0 0.00 0.00 0.00 67 1010.9
20260904095058 76 141 0.0 0.0 0.00 0.00 0.00 67 1010.9
20260904094538 76 141 0.0 0.0 0.00 0.00 0.00 68 1010.8
20260904094018 76 141 0.0 1.0 0.00 0.00 0.00 68 1010.7
20260904093601 76 141 0.0 1.0 0.00 0.00 0.00 68 1010.7
20260904093040 76 141 0.0 0.0 0.00 0.00 0.00 69 1010.7
20260904092518 76 141 0.0 0.0 0.00 0.00 0.00 69 1010.6
20260904092103 76 141 0.0 0.0 0.00 0.00 0.00 69 1010.6
20260904091542 76 141 0.0 0.0 0.00 0.00 0.00 69 1010.6
20260904091024 76 141 0.0 0.0 0.00 0.00 0.00 69 1010.5
20260904090500 77 141 0.0 0.0 0.00 0.00 0.00 70 1010.5
20260904090044 77 141 0.0 0.0 0.00 0.00 0.00 70 1010.4
20260904085524 77 141 0.0 0.0 0.00 0.00 0.00 70 1010.3
20260904085003 77 141 0.0 0.0 0.00 0.00 0.00 70 1010.3
20260904084555 77 141 0.0 0.0 0.00 0.00 0.00 71 1010.2
20260904084026 77 141 0.0 0.0 0.00 0.00 0.00 71 1010.2
20260904083507 77 141 0.0 0.0 0.00 0.00 0.00 71 1010.3
20260904083053 77 141 0.0 0.0 0.00 0.00 0.00 71 1010.3
20260904082529 77 141 0.0 0.0 0.00 0.00 0.00 71 1010.2
20260904082010 77 141 0.0 1.0 0.00 0.00 0.00 71 1010.2
20260904081553 77 129 0.0 1.0 0.00 0.00 0.00 71 1010.2
20260904081035 77 129 0.0 0.0 0.00 0.00 0.00 71 1010.1
20260904080511 77 129 0.0 0.0 0.00 0.00 0.00 71 1010.1
20260904080115 78 129 0.0 0.0 0.00 0.00 0.00 71 1010.1
20260904075535 78 129 0.0 0.0 0.00 0.00 0.00 71 1010.2
20260904075012 78 129 0.0 0.0 0.00 0.00 0.00 71 1010.1
20260904074557 78 129 0.0 0.0 0.00 0.00 0.00 71 1010.1
20260904074041 78 129 0.0 0.0 0.00 0.00 0.00 71 1010.1
20260904073514 78 129 0.0 0.0 0.00 0.00 0.00 71 1010.1
20260904073057 78 129 0.0 0.0 0.00 0.00 0.00 71 1010.1
20260904072540 78 129 0.0 0.0 0.00 0.00 0.00 71 1010.0
20260904072016 78 129 0.0 0.0 0.00 0.00 0.00 71 1010.0
20260904071603 78 129 0.0 0.0 0.00 0.00 0.00 71 1010.0
20260904071039 79 129 0.0 0.0 0.00 0.00 0.00 71 1010.0
20260904070526 79 129 0.0 0.0 0.00 0.00 0.00 71 1010.1
20260904065541 79 129 0.0 0.0 0.00 0.00 0.00 71 1010.1
20260904065021 79 129 0.0 0.0 0.00 0.00 0.00 71 1010.1
20260904064501 79 129 0.0 0.0 0.00 0.00 0.00 71 1010.2
20260904064045 79 129 0.0 0.0 0.00 0.00 0.00 71 1010.1
20260904063524 79 129 0.0 0.0 0.00 0.00 0.00 71 1010.0
20260904063004 79 129 0.0 0.0 0.00 0.00 0.00 71 1010.1
20260904062547 79 129 0.0 0.0 0.00 0.00 0.00 71 1010.1
20260904062027 79 129 0.0 0.0 0.00 0.00 0.00 70 1010.1
20260904061507 80 129 0.0 0.0 0.00 0.00 0.00 70 1010.1
20260904061053 80 129 0.0 0.0 0.00 0.00 0.00 70 1010.0
20260904060530 80 129 0.0 0.0 0.00 0.00 0.00 70 1009.9
20260904060012 80 129 0.0 0.0 0.00 0.00 0.00 69 1010.0
20260904055555 80 129 0.0 0.0 0.00 0.00 0.00 69 1010.0
20260904055033 80 129 0.0 0.0 0.00 0.00 0.00 69 1010.0
20260904054527 81 129 0.0 0.0 0.00 0.00 0.00 69 1009.9
20260904054056 81 129 0.0 0.0 0.00 0.00 0.00 68 1010.0
20260904053535 81 129 0.0 0.0 0.00 0.00 0.00 69 1009.9
20260904053019 81 129 0.0 0.0 0.00 0.00 0.00 68 1009.9
20260904052601 81 129 0.0 0.0 0.00 0.00 0.00 68 1009.9
20260904052038 81 129 0.0 1.0 0.00 0.00 0.00 67 1009.9
20260904051520 81 129 0.0 1.0 0.00 0.00 0.00 67 1009.7
20260904051100 81 143 0.0 0.0 0.00 0.00 0.00 67 1009.7
20260904050540 81 143 0.0 1.0 0.00 0.00 0.00 67 1009.7
20260904050020 81 143 0.0 0.0 0.00 0.00 0.00 67 1009.7
20260904045602 81 143 0.0 0.0 0.00 0.00 0.00 68 1009.7